Regional Weather Roundup
Issued by NWS Wakefield, VA

Home | Current Version | Previous Version | Text Only | Print | Product List | Glossary On
Versions: 1 2 3 4 5 6 7 8 9 10 11 12 13 14 15 16 17 18 19 20 21 22 23 24 25 26 27 28 29 30 31 32 33 34 35 36 37 38 39 40 41 42 43 44 45 46 47 48 49 50
000
ASUS41 KAKQ 262215
RWRAKQ

REGIONAL WEATHER ROUNDUP
NATIONAL WEATHER SERVICE WAKEFIELD VA
500 PM EST SUN FEB 26 2017

Note: "fair" indicates few or no clouds below 12,000 feet with no
significant weather and/or obstructions to visibility. * = Denotes
station may not report precipitation (e.g., rain,snow,etc.),
thunder or fog.

VAZ042-051-052>054-056-262300-
NORTHERN VIRGINIA

CITY           SKY/WX    TMP DP  RH WIND       PRES   REMARKS
WASH NATIONAL  MOSUNNY   49  17  28 W6        30.17R
DULLES         MOSUNNY   47  16  29 NW8       30.16R
FORT BELVOIR   SUNNY     49  16  27 NW6       30.16R
QUANTICO       SUNNY     50  16  25 W8        30.17R
FREDERICKSBRG* SUNNY     51  19  29 W7        30.16R
STAFFORD*      SUNNY     49  16  27 CALM      30.20R
WARRENTON      SUNNY     51   8  18 W5        30.14R
CULPEPER*      SUNNY     50  16  25 CALM      30.16R
MANASSAS*      MOSUNNY   49  17  28 SW5       30.16R
LEESBURG*      SUNNY     46  23  39 MISG      30.18R
WINCHESTER     SUNNY     43  14  31 NW10G16   30.15R
FRONT ROYAL*   CLEAR     46  12  25 W9        30.14R
LURAY*         CLEAR     48  16  27 NW13G18   30.14R
$$

VAZ048-049-060>072-079>083-262300-
CENTRAL AND SOUTH CENTRAL VIRGINIA

CITY           SKY/WX    TMP DP  RH WIND       PRES   REMARKS
RICHMOND       MOSUNNY   51  17  26 W7        30.17R
CHESTERFIELD*  FAIR      52  16  24 W7        30.19R
PETERSBURG*    SUNNY     51  15  24 W7        30.18R
HANOVER        SUNNY     51  15  23 W8        30.18R
TAPPAHANNOCK*  SUNNY     51   2  13 SW6       30.17R
QUINTON*       FAIR      51  19  28 W5        30.17R
CHARLOTTSVILLE SUNNY     54  13  19 VRB3      30.12R
GORDONSVILLE*  CLEAR     52  14  22 SW5       30.13R
ORANGE*        SUNNY     50  14  23 CALM      30.15R
LOUISA*        SUNNY     54  19  26 S3        30.13R
BUMPASS*       FAIR      50  16  25 SW6       30.15R
FARMVILLE*     SUNNY     54  15  21 SW9       30.15R
CREWE*         NOT AVBL
FORT PICKETT*  NOT AVBL
CHASE CITY*    FAIR      52  13  21 W3        30.17S
CLARKSVILLE*   NOT AVBL
SOUTH HILL*    SUNNY     51  21  31 SW6       30.24R
LAWRENCEVILLE* NOT AVBL
EMPORIA*       SUNNY     50  19  29 W8        30.21R
$$

VAZ088>098-262300-
SOUTHEAST VIRGINIA

CITY           SKY/WX    TMP DP  RH WIND       PRES   REMARKS
NORFOLK        SUNNY     49  31  49 E7        30.17R
VIRGINIA BEACH PTCLDY    46  27  47 E9        30.18R
NORFOLK NAVAL  MOSUNNY   51  30  44 N3        30.19R
WEST POINT*    SUNNY     51  17  26 NW7       30.19R
SALUDA*        NOT AVBL
NEWPORT NEWS   SUNNY     52  22  30 W7        30.18R
LANGLEY AFB    SUNNY     47  32  56 E8        30.17R
FORT EUSTIS    SUNNY     55  24  29 NW7       30.16R
WILLIAMSBURG*  SUNNY     55  25  30 NW9       30.19R
HR EXEC AP*    NOT AVBL
FRANKLIN*      SUNNY     53  18  25 W9        30.19R
US460-WAKEFLD  SUNNY     53  18  25 VRB5      30.18R
$$

VAZ020-022-025-037-045-262300-
WEST CENTRAL AND SOUTHWEST VIRGINIA

CITY           SKY/WX    TMP DP  RH WIND       PRES   REMARKS
STAUNTON*      SUNNY     48   9  21 NW10      30.15R
WAYNESBORO*    NOT AVBL
HOT SPRINGS VA SUNNY     36   0  21 W13G18    30.10R
LYNCHBURG      SUNNY     51  10  19 W9        30.17R
DANVILLE       SUNNY     53  16  23 VRB5      30.18R
SOUTH BOSTON*  NOT AVBL
MARTINSVILLE   SUNNY     53   9  17 W6        30.20R
ROANOKE        SUNNY     51   9  18 NW14      30.19R
BLACKSBURG     SUNNY     46  13  27 W6        30.20R
DUBLIN*        SUNNY     47  11  23 NW9       30.18R
MARION*        SUNNY     44  15  31 SW9       30.19R
HILLSVILLE*    SUNNY     44  14  30 CALM      30.14R
RICHLANDS*     FAIR      42  13  31 CALM      30.17R
WISE*          SUNNY     45  10  24 CALM      30.16S
ABINGDON*      SUNNY     47  15  28 SW6       30.18S
$$

MDZ021>025-VAZ099-100-262300-
SOUTHERN MARYLAND AND THE DELMARVA PENINSULA

CITY           SKY/WX    TMP DP  RH WIND       PRES   REMARKS
PATUXENT RIVER PTCLDY    47  22  37 NW7       30.17R
BAY BRIDGE APT CLEAR     45  21  39 NW8       30.18R
LEONARDTOWN    CLEAR     46  19  34 NW6       30.18R
DOVER          CLEAR     44  22  42 W13       30.16R
GEORGETOWN     CLEAR     45  18  34 W13       30.18R
EASTON         CLEAR     46  18  31 NW9       30.21R
CAMBRIDGE      CLEAR     45  19  36 NW8       30.18R
SALISBURY      CLEAR     45  20  36 W7        30.18R
OCEAN CITY     CLEAR     44  18  35 NW12G18   30.18R
WALLOPS ISLAND CLEAR     46  20  35 NW6       30.19R
ACCOMACK*      CLEAR     45  24  45 NW3       30.19R
$$

NCZ012>017-030>032-262300-
NORTH CENTRAL AND EASTERN NORTH CAROLINA

CITY           SKY/WX    TMP DP  RH WIND       PRES   REMARKS
ROANOKE RAPIDS FAIR      52  23  32 CALM      30.19R
RALEIGH        SUNNY     55  14  19 W8        30.19R
ELIZABETH CITY SUNNY     54  23  30 W9        30.18R
AHOSKIE*         N/A     52  21  29 W3        30.19R
EDENTON*       SUNNY     56  23  27 CALM      30.19R
CURRITUCK*     SUNNY     47  33  57 E6        30.20R
KILL DEVIL HLS NOT AVBL
MANTEO         SUNNY     47  33  59 SE5       30.20R
CAPE HATTERAS  SUNNY     54  32  43 VRB3      30.20R
TARBORO*       NOT AVBL
GOLDSBORO      SUNNY     57  14  17 W8        30.17R
WASHINGTON     SUNNY     56  19  23 NW7       30.19R
GREENVILLE     SUNNY     55  19  24 NW8       30.19S
NEW BERN       SUNNY     57  19  22 W8        30.20R
WILMINGTON     SUNNY     61  19  19 CALM      30.19R
$$

VAZ048-262300-
ELSEWHERE

CITY           SKY/WX    TMP DP  RH WIND       PRES   REMARKS
HARRISBURG PA  PTCLDY    40  20  44 NW17G26   30.16R
BALTIMORE      PTCLDY    45  19  35 NW9       30.17R
ANNAPOLIS      CLEAR     47  24  40 NW12      30.17R
ANDREWS AFB    CLEAR     47  16  29 W6        30.15R
PHILADELPHIA   PTCLDY    43  16  33 W20G25    30.16R
HENDERSON NC   SUNNY     49  15  26 W7        30.19R
GREENSBORO     MOSUNNY   53  12  19 NW7       30.17R
ROCKY MOUNT    SUNNY     54  18  24 W7        30.19R
$$

VAZ100-262300-
MARINE

STATION/POSITION TIME  TEMP    WIND        PRES    WAVE   SWELL
                       AIR SEA DIR/SP/G            HT/PER HT/PER
                 (UTC) (F)     (DEG/KT/KT) (MB)    (FT/S) (FT/S)
CAPE MAY NJ      2148   42 46  310/ 15/ 18 1021.0R
LEWES DE         2148   44 45  300/ 18/ 22 1021.3R
OCEAN-CITY-INLET 2148   44 49  310/ 13/ 18 1022.1R
WACHAPREAGUE VA  2148   45 54   20/  5/  6 1022.2R
THOMAS POINT MD  2200   45 44  310/ 12/ 14   N/A
GOOSES REEF MD   2150   47     330/  8/ 12 1022.2R
COVE POINT MD    2148   45     360/  5/  8 1022.2R
SOLOMONS ISLAND  2148   47 45  300/  6/  8   N/A
BISHOPS HEAD MD  2148   46 49  320/  7/ 10 1022.1R
PINEY POINT MD   2148          360/  8/  9   N/A
POTOMAC MD       2150   46     330/  8/ 10 1020.9R
CAMBRIDGE MD     2148   44 47  300/  5/  8 1021.2R
LEWISETTA VA     2148   46 48   20/  5/  9 1021.4R
RAPPAHANNOCK LGT 2148           50/  7/  9 1022.8R
YORK RVR RNG VA  2148   44      80/ 10/ 12 1021.2R
YORKTOWN VA      2148   51 50  320/  7/  8 1021.4R
JAMESTOWN VA     2150   52     300/ 10/ 12   N/A
DOMINION TERM VA 2148   52     310/  3/  4 1021.7R
KIPTOPEKE VA     2148      51  320/  5/  6   N/A
CHES BAY BRIDGE  2148   45 48   20/  7/  9 1021.6R
CAPE HENRY VA    2148   47     110/  4/  6   N/A
WILLOUBY STN VA  2148   46      50/  6/  8 1022.6R
S CRANEY ISL VA  2148   53     290/  6/  8 1021.4R
CAPE HENRY BUOY  2142      48                N/A     3/10
OFFSHORE WE BUOY 2151      49                N/A     4/ 9   2/11
64NM E OF VA BCH 2150   44 51  350/  6/  8 1022.4R   4/10   3/10
DUCK PIER NC     2148   46 49   80/  7/  9 1021.8R
44100 DUCK FRF   2135      50                N/A     4/ 9   2/11
44056 DUCK FRF   2130      50                N/A     4/10   2/11
OREGON INLET NC  2148           80/  6/  8   N/A
HATTERAS NC      2148   53 61  280/  4/  7 1022.3R
DIAMOND SHLS NC  2150   54 72  270/  8/ 12 1022.8R   4/ 9   3/ 9
CAPE LOOKOUT NC  2100   54     210/  7/  9 1021.8R
$$



USA.gov is the U.S. government's official web portal to all federal, state and local government web resources and services.